Quincy, IL

10:29 PM CST on November 16, 2019 (GMT -0600)
Quincy Regional-Baldwin

Weather History for KUIN - October, 2019

Change the Weather History Date:

Tuesday, October 15, 2019

  Actual Average Record
Temperature  
Mean Temperature 58 °F 55 °F  
Max Temperature 70 °F 65 °F 90 °F (1938)
Min Temperature 45 °F 45 °F 29 °F (1952)
Degree Days  
Heating Degree Days 7 10  
Month to date heating degree days 128  
Since 1 July heating degree days 215  
Cooling Degree Days 0 0  
Month to date cooling degree days 14  
Year to date cooling degree days 1090  
Growing Degree Days 8 (Base 50)    
Moisture  
Dew Point 46 °F    
Average Humidity 63    
Maximum Humidity 78    
Minimum Humidity 43    
Precipitation  
Precipitation 0.00 in 0.10 in 1.66 in (1967)
Month to date precipitation 1.48  
Year to date precipitation 30.53  
Sea Level Pressure  
Sea Level Pressure 29.88 in    
Wind  
Wind Speed 10 mph ()    
Max Wind Speed 20 mph    
Max Gust Speed 33 mph    
Visibility 10.0 miles    
Events      
T = Trace of Precipitation, MM = Missing Value Source: Averaged Metar Reports

Daily Weather History Graph

Daily Weather History Graph

Search for Another Location

Airport or City:

Astronomy

Oct. 15, 2019 Rise Set
Actual Time 7:14 AM CDT 6:25 PM CDT
Civil Twilight 6:47 AM CDT 6:52 PM CDT
Nautical Twilight 6:16 AM CDT 7:24 PM CDT
Astronomical Twilight 5:44 AM CDT 7:55 PM CDT
Moon 7:45 PM CDT (10/15) 8:45 AM CDT (10/15)
Length of Visible Light 12h 05m
Length of Day
11h 10m
Full, 97% of the Moon is Illuminated
Oct 15
Full
Oct 21
Last Quarter
Oct 27
New
Nov 4
First Quarter
Nov 12
Full

Hourly Weather History & Observations

Time (CDT) Temp. Windchill Dew Point Humidity Pressure Visibility Wind Dir Wind Speed Gust Speed Precip Events Conditions
12:54 AM 54.0 °F - 41.0 °F 62% 29.94 in 10.0 mi SSE 9.2 mph - N/A   Clear
1:54 AM 52.0 °F - 43.0 °F 71% 29.93 in 10.0 mi South 8.1 mph - N/A   Clear
2:54 AM 55.0 °F - 44.1 °F 67% 29.91 in 10.0 mi South 11.5 mph - N/A   Clear
3:54 AM 57.0 °F - 44.1 °F 62% 29.87 in 10.0 mi South 9.2 mph - N/A   Overcast
4:54 AM 57.0 °F - 46.0 °F 67% 29.87 in 10.0 mi South 11.5 mph - N/A   Overcast
5:32 AM 55.9 °F - 46.9 °F 72% 29.87 in 10.0 mi South 8.1 mph - N/A   Overcast
5:54 AM 55.9 °F - 46.9 °F 72% 29.87 in 10.0 mi South 10.4 mph - N/A   Overcast
6:54 AM 57.0 °F - 48.9 °F 74% 29.86 in 10.0 mi South 9.2 mph - N/A   Overcast
7:54 AM 57.0 °F - 50.0 °F 77% 29.86 in 10.0 mi SSW 10.4 mph - N/A   Overcast
8:54 AM 60.1 °F - 52.0 °F 75% 29.86 in 10.0 mi SSW 9.2 mph - N/A   Overcast
9:54 AM 61.0 °F - 54.0 °F 78% 29.85 in 10.0 mi SSW 10.4 mph - N/A   Overcast
10:28 AM 64.0 °F - 55.0 °F 73% 29.83 in 10.0 mi SSW 12.7 mph - N/A   Scattered Clouds
10:54 AM 66.0 °F - 57.0 °F 73% 29.82 in 10.0 mi SW 10.4 mph - N/A   Clear
11:24 AM 66.9 °F - 57.0 °F 70% 29.82 in 10.0 mi SW 16.1 mph 21.9 mph N/A   Mostly Cloudy
11:54 AM 66.0 °F - 57.0 °F 73% 29.81 in 10.0 mi WSW 16.1 mph - N/A   Overcast
12:54 PM 66.0 °F - 57.0 °F 73% 29.82 in 10.0 mi West 9.2 mph - N/A   Overcast
1:54 PM 68.0 °F - 55.9 °F 65% 29.81 in 10.0 mi West 15.0 mph - N/A   Mostly Cloudy
2:54 PM 70.0 °F - 50.0 °F 49% 29.81 in 10.0 mi NW 18.4 mph 26.5 mph N/A   Partly Cloudy
3:54 PM 66.9 °F - 44.1 °F 44% 29.84 in 10.0 mi WNW 15.0 mph - N/A   Clear
4:54 PM 64.0 °F - 41.0 °F 43% 29.85 in 10.0 mi NW 16.1 mph - N/A   Clear
5:54 PM 61.0 °F - 39.9 °F 46% 29.86 in 10.0 mi WNW 18.4 mph 25.3 mph N/A   Clear
6:54 PM 57.0 °F - 37.9 °F 49% 29.89 in 10.0 mi NW 12.7 mph - N/A   Clear
7:54 PM 54.0 °F - 37.0 °F 53% 29.93 in 10.0 mi NW 16.1 mph 25.3 mph N/A   Clear
8:54 PM 52.0 °F - 32.0 °F 47% 29.96 in 10.0 mi NW 19.6 mph 33.4 mph N/A   Partly Cloudy
9:54 PM 48.9 °F - 33.1 °F 54% 29.98 in 10.0 mi NW 15.0 mph 21.9 mph N/A   Clear
10:54 PM 46.9 °F - 33.1 °F 59% 29.99 in 10.0 mi WNW 12.7 mph - N/A   Clear
11:54 PM 45.0 °F 39.3 °F 34.0 °F 65% 30.00 in 10.0 mi NW 11.5 mph - N/A   Clear